QPF
0.03 0.03 0.03 0.04 0.05 0.04 0.03 0.05 0.07 0.05 0.03 0.01 0.00 0.00 0.00 0.00 0.00 0.00 0.00 0.00 0.00 0.00 0.00 0.00 0.00 0.00 0.00 0.00 0.00 0.00 0.00 0.00 0.00 0.00 0.00 0.00 0.00 0.00
0.01 0.03 0.03 0.04 0.07 0.08 0.06 0.05 0.05 0.06 0.06 0.02 0.00 0.00 0.00 0.00 0.00 0.00 0.00 0.00 0.00 0.00 0.00 0.00 0.00 0.00 0.00 0.00 0.00 0.00 0.00 0.00 0.00 0.00 0.00 0.00 0.00 0.00
0.00 0.01 0.02 0.03 0.07 0.08 0.07 0.05 0.04 0.03 0.03 0.02 0.00 0.00 0.00 0.00 0.00 0.00 0.00 0.00 0.00 0.00 0.00 0.00 0.00 0.00 0.00 0.00 0.00 0.00 0.00 0.00 0.00 0.00 0.00 0.00 0.00 0.00
0.00 0.00 0.00 0.00 0.00 0.00 0.00 0.00 0.01 0.01 0.01 0.00 0.00 0.00 0.00 0.00 0.00 0.00 0.00 0.00 0.00 0.00 0.00 0.00 0.00 0.00 0.00 0.00 0.00 0.00 0.00 0.00 0.00 0.00 0.00 0.00 0.00 0.00
0.00 0.00 0.00 0.00 0.00 0.00 0.00 0.00 0.00 0.00 0.00 0.00 0.00 0.00 0.00 0.00 0.00 0.00 0.00 0.00 0.00 0.00 0.00 0.00 0.00 0.00 0.00 0.00 0.00 0.00 0.00 0.00 0.00 0.00 0.00 0.00 0.00 0.00
0.00 0.00 0.00 0.00 0.00 0.00 0.00 0.00 0.00 0.00 0.00 0.00 0.00 0.00 0.00 0.00 0.00 0.00 0.00 0.00 0.00 0.00 0.00 0.00 0.00 0.00 0.00 0.00 0.00 0.00 0.00 0.00 0.00 0.00 0.00 0.00 0.00 0.00
0.00 0.00 0.00 0.00 0.00 0.00 0.00 0.00 0.00 0.00 0.00 0.00 0.00 0.00 0.00 0.00 0.00 0.00 0.00 0.00 0.00 0.00 0.00 0.00 0.00 0.00 0.00 0.00 0.00 0.00 0.00 0.00 0.00 0.01 0.01 0.00 0.00 0.00
0.00 0.00 0.00 0.00 0.00 0.00 0.00 0.00 0.00 0.00 0.00 0.00 0.00 0.00 0.00 0.00 0.00 0.00 0.00 0.00 0.00 0.00 0.00 0.00 0.00 0.00 0.00 0.00 0.00 0.00 0.00 0.00 0.00 0.00 0.00 0.00 0.00 0.00
0.00 0.00 0.00 0.00 0.00 0.00 0.00 0.00 0.00 0.00 0.00 0.00 0.00 0.00 0.00 0.00 0.00 0.00 0.00 0.00 0.00 0.00 0.00 0.00 0.00 0.00 0.00 0.00 0.00 0.00 0.00 0.00 0.00 0.00 0.00 0.00 0.00 0.00
0.00 0.00 0.00 0.00 0.00 0.00 0.00 0.00 0.00 0.00 0.00 0.00 0.00 0.00 0.00 0.00 0.00 0.00 0.00 0.00 0.00 0.00 0.00 0.00 0.00 0.00 0.00 0.00 0.00 0.00 0.00 0.00 0.00 0.00 0.00 0.00 0.00 0.00
0.00 0.00 0.00 0.00 0.00 0.00 0.00 0.00 0.00 0.00 0.00 0.00 0.00 0.00 0.00 0.00 0.00 0.00 0.00 0.00 0.00 0.00 0.00 0.00 0.00 0.00 0.00 0.00 0.00 0.00 0.00 0.00 0.00 0.00 0.00 0.00 0.00 0.00
0.00 0.00 0.00 0.00 0.00 0.00 0.00 0.00 0.00 0.00 0.00 0.00 0.00 0.00 0.00 0.00 0.00 0.00 0.00 0.00 0.00 0.00 0.00 0.00 0.00 0.00 0.00 0.00 0.00 0.00 0.00 0.00 0.00 0.00 0.00 0.00 0.00 0.00
0.00 0.00 0.00 0.00 0.00 0.00 0.00 0.00 0.00 0.00 0.00 0.00 0.00 0.00 0.00 0.00 0.00 0.00 0.00 0.00 0.00 0.00 0.00 0.00 0.00 0.00 0.00 0.00 0.00 0.00 0.00 0.00 0.00 0.00 0.00 0.00 0.00 0.00
0.00 0.00 0.00 0.00 0.00 0.00 0.00 0.00 0.00 0.00 0.00 0.00 0.00 0.00 0.00 0.00 0.00 0.00 0.00 0.00 0.00 0.00 0.00 0.00 0.00 0.00 0.01 0.00 0.00 0.00 0.00 0.00 0.00 0.00 0.00 0.00 0.00 0.00
0.00 0.00 0.00 0.00 0.00 0.00 0.00 0.00 0.00 0.00 0.00 0.00 0.00 0.00 0.00 0.00 0.00 0.00 0.00 0.00 0.00 0.00 0.00 0.00 0.00 0.00 0.00 0.00 0.00 0.00 0.00 0.00 0.00 0.00 0.00 0.00 0.00 0.00
0.00 0.00 0.00 0.00 0.00 0.00 0.00 0.00 0.00 0.00 0.00 0.00 0.00 0.00 0.00 0.00 0.00 0.00 0.00 0.00 0.00 0.00 0.00 0.00 0.00 0.00 0.00 0.00 0.00 0.00 0.00 0.00 0.00 0.00 0.00 0.00 0.00 0.00
0.00 0.00 0.00 0.00 0.00 0.00 0.00 0.00 0.00 0.00 0.00 0.00 0.00 0.00 0.00 0.00 0.00 0.00 0.00 0.00 0.00 0.00 0.00 0.00 0.00 0.00 0.00 0.00 0.00 0.00 0.00 0.00 0.00 0.00 0.00 0.00 0.00 0.00
0.00 0.00 0.00 0.00 0.00 0.00 0.00 0.00 0.00 0.00 0.00 0.00 0.00 0.00 0.00 0.00 0.00 0.00 0.00 0.00 0.00 0.00 0.00 0.00 0.00 0.00 0.00 0.00 0.00 0.00 0.00 0.00 0.00 0.00 0.00 0.00 0.00 0.00
0.00 0.00 0.00 0.00 0.00 0.00 0.00 0.00 0.00 0.00 0.00 0.00 0.00 0.00 0.00 0.00 0.00 0.00 0.00 0.00 0.00 0.00 0.00 0.00 0.00 0.00 0.00 0.00 0.00 0.00 0.00 0.00 0.00 0.00 0.00 0.00 0.00 0.00
0.00 0.00 0.00 0.00 0.00 0.00 0.00 0.00 0.00 0.00 0.00 0.00 0.00 0.00 0.00 0.00 0.00 0.00 0.00 0.00 0.00 0.00 0.00 0.00 0.00 0.00 0.00 0.00 0.00 0.00 0.00 0.00 0.00 0.00 0.00 0.00 0.00 0.00
0.00 0.00 0.00 0.00 0.00 0.00 0.00 0.00 0.00 0.00 0.00 0.00 0.00 0.00 0.00 0.00 0.00 0.00 0.00 0.00 0.00 0.00 0.00 0.00 0.00 0.00 0.00 0.00 0.00 0.00 0.00 0.00 0.00 0.00 0.00 0.00 0.00 0.00
0.00 0.00 0.00 0.00 0.00 0.00 0.00 0.00 0.00 0.00 0.00 0.00 0.00 0.00 0.00 0.00 0.00 0.00 0.00 0.00 0.00 0.00 0.00 0.00 0.00 0.00 0.00 0.00 0.00 0.00 0.00 0.00 0.00 0.00 0.00 0.00 0.00 0.00
0.00 0.00 0.00 0.00 0.00 0.00 0.00 0.00 0.00 0.00 0.00 0.00 0.00 0.00 0.00 0.00 0.00 0.00 0.00 0.00 0.00 0.00 0.00 0.00 0.00 0.00 0.00 0.00 0.00 0.00 0.00 0.00 0.00 0.00 0.00 0.00 0.00 0.00
MSLP
1009.44 1009.13 1008.91 1008.70 1008.56 1008.03 1007.74 1007.78 1007.94 1008.57 1008.86 1009.48 1010.28 1011.08 1011.49 1011.46 1012.02 1012.24 1012.47 1012.46 1012.44 1012.72 1012.15 1012.13 1011.84 1011.99 1011.71 1011.69 1011.57 1011.47 1011.14 1011.10 1011.03 1010.87 1010.53 1010.46 1009.95 1009.94
1009.51 1009.17 1009.01 1008.95 1008.68 1008.52 1008.21 1008.15 1008.25 1008.77 1009.32 1010.10 1011.08 1011.64 1011.98 1011.62 1012.31 1012.62 1012.84 1012.97 1013.13 1012.85 1012.49 1012.26 1012.11 1011.91 1011.94 1012.11 1011.44 1011.32 1011.43 1011.11 1010.75 1010.54 1010.21 1010.12 1009.93 1009.75
1010.18 1009.90 1009.80 1009.69 1009.37 1009.30 1009.23 1009.10 1009.17 1009.31 1009.62 1010.82 1011.39 1011.90 1012.21 1012.48 1012.79 1012.93 1013.14 1012.84 1013.10 1013.10 1012.58 1012.38 1012.11 1011.82 1011.65 1011.86 1011.72 1011.54 1011.31 1010.98 1010.72 1010.54 1009.98 1009.91 1009.62 1009.41
1010.47 1010.37 1010.39 1010.29 1010.23 1010.31 1010.15 1010.00 1009.95 1009.99 1010.01 1010.80 1011.78 1012.39 1012.87 1012.92 1013.09 1012.97 1012.97 1012.56 1013.09 1012.84 1012.51 1012.24 1012.16 1011.84 1011.71 1011.50 1011.71 1011.62 1011.34 1011.03 1010.72 1010.63 1010.02 1009.52 1009.28 1009.03
1011.37 1011.08 1010.92 1010.76 1010.89 1010.82 1010.65 1010.58 1010.71 1010.70 1010.67 1010.79 1011.84 1012.46 1012.86 1013.05 1012.90 1012.83 1012.83 1012.89 1012.43 1012.23 1012.38 1012.34 1012.26 1011.93 1011.53 1011.28 1011.55 1011.29 1011.25 1010.76 1010.41 1010.24 1009.66 1009.28 1009.05 1008.66
1011.88 1011.79 1011.64 1011.42 1011.45 1011.36 1011.26 1011.18 1011.16 1011.08 1011.18 1011.43 1012.10 1012.87 1013.19 1013.51 1013.46 1013.33 1012.73 1012.39 1012.10 1011.97 1012.38 1012.34 1012.33 1011.77 1011.38 1011.32 1011.10 1011.03 1010.87 1010.60 1010.25 1009.79 1009.28 1008.84 1008.70 1008.47
1012.51 1012.43 1012.42 1012.33 1012.30 1012.15 1011.90 1012.03 1011.95 1011.96 1012.13 1012.33 1012.67 1012.96 1013.24 1013.27 1013.31 1013.41 1013.22 1012.78 1012.16 1012.27 1012.19 1011.96 1011.51 1011.23 1010.97 1010.88 1010.80 1010.75 1010.70 1010.47 1009.87 1009.28 1008.96 1008.74 1008.51 1008.23
1012.57 1012.68 1012.77 1012.72 1012.84 1012.79 1012.64 1012.60 1012.49 1012.26 1012.38 1012.59 1012.91 1013.15 1013.56 1013.56 1013.73 1013.64 1013.54 1013.13 1012.48 1012.45 1012.37 1011.84 1011.37 1011.06 1010.82 1010.67 1010.64 1010.61 1010.33 1009.91 1009.47 1009.21 1008.96 1008.71 1008.45 1008.03
1012.65 1012.68 1012.78 1013.02 1013.05 1013.07 1013.25 1013.15 1013.15 1013.15 1013.15 1012.98 1013.09 1013.37 1013.48 1013.84 1013.96 1013.72 1013.53 1013.36 1013.06 1012.65 1012.57 1011.39 1011.19 1010.95 1010.56 1010.36 1010.27 1010.20 1009.97 1009.60 1009.32 1008.84 1008.53 1008.31 1007.95 1007.51
1012.91 1012.96 1012.96 1013.12 1013.35 1013.33 1013.30 1013.42 1013.50 1013.63 1013.77 1013.74 1013.71 1013.82 1013.94 1013.99 1013.99 1013.96 1013.82 1013.56 1013.15 1012.77 1012.82 1011.99 1011.32 1011.06 1010.77 1010.28 1009.94 1009.93 1009.64 1009.42 1009.02 1008.74 1008.38 1008.04 1007.46 1007.03
1013.12 1013.19 1013.20 1013.23 1013.64 1013.74 1013.57 1013.56 1013.62 1013.90 1014.36 1014.47 1014.47 1014.51 1014.61 1014.47 1014.53 1014.23 1013.90 1013.72 1013.01 1012.62 1012.83 1012.76 1011.74 1011.29 1010.73 1009.95 1009.74 1009.72 1009.47 1009.17 1008.79 1008.40 1007.94 1007.48 1007.12 1006.66
1012.75 1012.98 1013.51 1013.46 1013.60 1013.73 1013.51 1013.50 1013.57 1013.74 1014.08 1014.31 1014.50 1014.60 1014.57 1014.53 1014.63 1014.44 1014.28 1014.04 1013.86 1013.07 1013.15 1013.23 1012.42 1012.16 1011.00 1009.73 1009.59 1009.45 1009.09 1008.74 1008.30 1007.92 1007.53 1007.16 1006.84 1006.42
1012.40 1012.63 1012.89 1013.22 1013.50 1013.63 1013.72 1013.60 1013.75 1014.00 1014.22 1014.21 1014.31 1014.41 1014.54 1014.51 1014.51 1014.43 1014.40 1014.39 1014.27 1013.82 1013.43 1013.67 1013.05 1012.66 1012.10 1010.67 1009.32 1008.97 1008.65 1008.28 1007.79 1007.31 1007.13 1006.92 1006.47 1006.30
1012.06 1012.19 1012.38 1012.97 1013.22 1013.51 1013.66 1013.68 1013.73 1014.07 1014.07 1014.00 1014.05 1014.18 1014.35 1014.52 1014.63 1014.57 1014.50 1014.41 1014.25 1014.07 1013.72 1013.78 1013.38 1012.89 1012.18 1011.15 1010.20 1008.83 1008.47 1008.07 1007.49 1007.07 1006.99 1006.50 1005.99 1005.61
1011.81 1012.14 1012.44 1012.68 1012.87 1013.10 1013.42 1013.52 1013.58 1013.84 1013.91 1013.98 1013.89 1014.23 1014.60 1014.77 1014.95 1014.66 1014.41 1014.35 1014.20 1013.80 1013.51 1013.45 1013.16 1012.63 1012.04 1011.20 1010.33 1009.36 1008.48 1007.57 1007.41 1007.01 1006.63 1006.20 1005.76 1005.30
1011.68 1011.90 1012.25 1012.42 1012.66 1012.83 1013.11 1013.31 1013.34 1013.63 1013.76 1013.84 1013.99 1014.34 1014.73 1014.77 1014.70 1014.58 1014.29 1014.00 1013.67 1012.95 1012.87 1012.98 1012.90 1012.50 1011.58 1010.87 1010.21 1009.07 1008.57 1008.11 1007.20 1006.79 1006.34 1005.85 1005.32 1004.76
1011.28 1011.47 1011.86 1012.11 1012.37 1012.62 1012.84 1013.01 1013.25 1013.49 1013.72 1013.87 1014.13 1014.35 1014.60 1014.65 1014.54 1014.55 1014.32 1014.03 1013.59 1013.00 1012.54 1012.30 1012.16 1011.82 1011.16 1010.46 1009.75 1008.91 1008.00 1007.45 1007.10 1006.51 1006.02 1005.23 1004.59 1004.01
1010.68 1010.94 1011.22 1011.51 1011.78 1011.93 1012.29 1012.65 1012.97 1013.29 1013.57 1013.93 1014.08 1014.35 1014.50 1014.55 1014.57 1014.28 1014.16 1014.03 1013.60 1013.14 1012.70 1012.20 1011.75 1011.19 1010.19 1009.03 1008.70 1008.36 1007.89 1007.37 1006.71 1006.21 1005.83 1005.16 1003.99 1003.28
1009.77 1010.17 1010.41 1010.71 1011.07 1011.36 1011.70 1012.15 1012.50 1012.72 1013.17 1013.62 1013.87 1013.93 1014.16 1014.35 1014.42 1014.12 1013.79 1013.66 1013.40 1013.09 1012.72 1012.24 1011.79 1011.40 1010.47 1009.32 1008.28 1007.80 1007.78 1007.22 1006.55 1005.88 1005.42 1004.90 1004.08 1003.00
1008.87 1009.36 1009.77 1010.04 1010.40 1010.77 1011.17 1011.62 1012.06 1012.43 1012.83 1013.13 1013.58 1013.67 1013.86 1014.07 1014.05 1013.87 1013.65 1013.36 1013.20 1013.00 1012.48 1012.06 1011.58 1011.27 1010.95 1010.21 1009.11 1008.01 1007.57 1007.04 1006.47 1005.66 1004.93 1004.24 1003.50 1002.42
1008.10 1008.63 1009.12 1009.51 1009.83 1010.18 1010.67 1011.17 1011.62 1011.91 1012.26 1012.56 1012.94 1013.29 1013.45 1013.62 1013.58 1013.46 1013.26 1012.92 1012.86 1012.78 1012.38 1011.81 1011.37 1011.18 1010.70 1010.15 1009.13 1007.66 1006.62 1006.44 1006.15 1005.72 1004.97 1004.14 1003.04 1001.89
1007.43 1008.04 1008.52 1009.03 1009.40 1009.77 1010.25 1010.75 1011.23 1011.52 1011.76 1011.93 1012.25 1012.54 1013.05 1013.15 1013.14 1013.07 1012.84 1012.54 1012.51 1012.55 1012.24 1011.73 1011.15 1010.65 1010.20 1009.53 1008.67 1007.67 1006.59 1005.83 1005.39 1004.81 1004.79 1004.56 1003.86 1002.84
1006.90 1007.45 1007.94 1008.57 1009.02 1009.47 1009.75 1010.20 1010.53 1011.00 1011.46 1011.40 1011.64 1011.98 1012.61 1012.76 1012.70 1012.73 1012.52 1012.31 1012.31 1012.24 1011.94 1011.41 1010.86 1010.27 1009.70 1009.11 1008.34 1007.44 1006.53 1005.71 1005.04 1004.59 1004.13 1003.68 1003.29 1002.79
Thickness
5529 5533 5538 5545 5550 5558 5564 5568 5568 5565 5568 5568 5565 5557 5555 5555 5551 5548 5549 5551 5550 5544 5551 5553 5558 5556 5559 5555 5555 5555 5557 5554 5554 5555 5557 5556 5560 5559
5530 5532 5535 5538 5543 5547 5553 5558 5559 5557 5557 5551 5543 5540 5538 5543 5537 5537 5535 5534 5531 5534 5537 5538 5540 5542 5543 5539 5543 5542 5538 5541 5544 5545 5548 5548 5550 5549
5525 5525 5525 5527 5531 5533 5535 5538 5539 5542 5547 5531 5528 5528 5527 5527 5524 5523 5522 5525 5522 5521 5524 5524 5525 5527 5527 5523 5524 5524 5526 5528 5530 5531 5536 5538 5540 5540
5524 5522 5520 5520 5520 5520 5522 5523 5523 5524 5530 5524 5515 5513 5511 5513 5510 5511 5513 5516 5510 5511 5513 5512 5511 5512 5513 5514 5509 5509 5511 5514 5517 5517 5523 5528 5530 5532
5519 5518 5517 5516 5512 5512 5512 5512 5510 5511 5514 5515 5505 5502 5501 5500 5502 5502 5502 5500 5504 5504 5501 5499 5498 5500 5502 5503 5499 5500 5499 5503 5506 5507 5512 5514 5515 5519
5517 5514 5512 5511 5507 5505 5505 5505 5505 5507 5506 5504 5498 5491 5489 5487 5487 5488 5494 5496 5497 5497 5491 5490 5487 5491 5493 5491 5491 5491 5490 5492 5494 5499 5502 5505 5506 5508
5512 5509 5506 5504 5501 5500 5500 5496 5495 5494 5491 5489 5487 5486 5483 5482 5482 5480 5480 5483 5487 5484 5482 5482 5485 5485 5484 5484 5483 5482 5480 5482 5486 5490 5492 5493 5495 5497
5511 5507 5503 5501 5496 5494 5493 5492 5491 5492 5489 5486 5481 5479 5473 5472 5469 5470 5468 5471 5474 5471 5469 5471 5473 5474 5473 5471 5470 5468 5468 5471 5473 5474 5475 5476 5478 5480
5506 5503 5499 5494 5491 5488 5484 5483 5481 5479 5478 5479 5477 5473 5470 5464 5461 5462 5460 5459 5459 5459 5456 5462 5461 5458 5457 5457 5455 5453 5453 5455 5455 5457 5458 5458 5460 5463
5497 5495 5492 5488 5483 5481 5478 5475 5472 5469 5466 5464 5462 5460 5457 5454 5451 5449 5447 5445 5446 5446 5442 5443 5446 5442 5439 5438 5438 5435 5434 5433 5434 5434 5434 5435 5439 5442
5490 5486 5483 5480 5473 5469 5468 5465 5463 5458 5451 5448 5445 5443 5440 5438 5435 5435 5434 5431 5434 5435 5427 5422 5425 5425 5422 5422 5420 5416 5414 5413 5411 5411 5412 5413 5414 5418
5487 5481 5472 5470 5466 5461 5460 5458 5455 5450 5444 5439 5435 5431 5428 5425 5422 5420 5418 5415 5411 5415 5411 5404 5402 5401 5404 5402 5397 5392 5391 5387 5386 5384 5383 5382 5382 5386
5483 5477 5470 5463 5458 5454 5449 5447 5442 5436 5431 5429 5425 5422 5418 5414 5410 5407 5403 5399 5394 5392 5391 5384 5379 5376 5375 5381 5379 5374 5372 5370 5367 5365 5361 5358 5357 5356
5475 5471 5465 5457 5451 5445 5439 5435 5432 5425 5422 5420 5416 5413 5407 5403 5398 5393 5389 5385 5381 5376 5372 5366 5360 5355 5354 5357 5359 5362 5357 5354 5354 5352 5347 5345 5346 5346
5465 5458 5453 5449 5443 5437 5430 5425 5422 5416 5412 5409 5407 5401 5393 5389 5383 5381 5376 5370 5366 5362 5358 5351 5346 5343 5341 5342 5344 5343 5347 5345 5340 5338 5336 5334 5334 5335
5453 5447 5442 5439 5433 5428 5421 5416 5413 5406 5403 5399 5395 5387 5380 5376 5372 5367 5363 5359 5353 5353 5348 5341 5335 5331 5332 5331 5332 5335 5332 5329 5330 5328 5327 5325 5327 5328
5444 5438 5432 5428 5422 5416 5411 5407 5401 5396 5391 5386 5380 5375 5368 5364 5361 5354 5349 5344 5341 5339 5336 5332 5326 5323 5323 5323 5322 5325 5327 5324 5321 5321 5319 5321 5324 5326
5434 5428 5423 5418 5413 5410 5403 5397 5392 5385 5380 5373 5369 5362 5356 5352 5347 5344 5337 5331 5328 5327 5326 5323 5320 5318 5320 5324 5320 5319 5317 5316 5315 5315 5314 5315 5321 5326
5427 5421 5417 5412 5406 5402 5397 5390 5383 5378 5371 5363 5358 5353 5347 5341 5335 5331 5329 5324 5320 5317 5315 5314 5311 5307 5308 5311 5314 5313 5308 5308 5309 5311 5312 5313 5316 5323
5421 5414 5408 5404 5399 5394 5388 5381 5375 5368 5361 5355 5348 5343 5337 5330 5325 5321 5319 5316 5312 5309 5308 5306 5304 5300 5296 5296 5297 5302 5301 5301 5303 5307 5311 5314 5318 5326
5414 5407 5400 5396 5391 5386 5380 5373 5366 5360 5354 5349 5342 5333 5328 5322 5318 5315 5312 5311 5307 5302 5299 5299 5297 5292 5289 5287 5291 5299 5302 5299 5299 5301 5306 5311 5321 5332
5405 5398 5392 5386 5381 5376 5370 5364 5356 5351 5346 5342 5335 5329 5319 5315 5311 5308 5306 5305 5300 5295 5292 5291 5290 5288 5285 5285 5287 5290 5295 5299 5300 5303 5303 5306 5313 5323
5396 5390 5383 5376 5370 5365 5361 5356 5351 5343 5335 5334 5329 5322 5312 5306 5304 5300 5298 5296 5291 5287 5285 5284 5284 5283 5282 5281 5283 5286 5290 5295 5299 5301 5306 5311 5316 5322